Location: Colle Pacifico
(43.5333°N, 13.3167°E)
Time: 00:13:30
(UTC+00:00)

Daily predictions for brighter satellites

Satellite Brightness Start Highest point End
(mag) Time Altitude Azimuth Time Altitude Azimuth Time Altitude Azimuth
STARLINK-1268 4.1 00:04:28 41° NNE 00:04:28 41° NNE 00:06:43 10° NE
STARLINK-1301 3.4 00:03:56 74° NW 00:03:59 74° NNW 00:07:51 10° NE
STARLINK-1303 3.4 00:05:53 73° NNW 00:05:53 73° NNW 00:09:36 10° NE
Cosmos 1570 Rocket 4.1 00:04:53 47° SW 00:06:16 67° WNW 00:11:33 10° NNE
Cosmos 1709 Rocket 4.0 00:05:05 44° SSW 00:07:05 71° W 00:13:16 10° N
STARLINK-66 4.1 00:07:08 40° NNW 00:07:08 40° NNW 00:10:12 10° NE
Cosmos 1763 Rocket 4.3 00:05:57 31° WSW 00:07:31 39° WNW 00:12:18 10° N
Cosmos 1400 Rocket 3.5 00:04:14 10° N 00:08:17 51° ENE 00:09:10 42° ESE
STARLINK-1316 3.9 00:09:23 45° NNE 00:09:23 45° NNE 00:11:54 10° NE
STARLINK-1312 3.5 00:09:13 69° NW 00:09:20 69° NNW 00:13:06 10° NE
STARLINK-1257 3.9 00:10:14 46° N 00:10:14 46° N 00:12:47 10° NE
Cosmos 2227 Rocket 3.3 00:05:12 10° NW 00:09:55 28° WSW 00:10:10 28° WSW
STARLINK-1256 3.9 00:11:11 46° N 00:11:11 46° N 00:13:44 10° NE
STARLINK-58 3.8 00:11:42 47° NE 00:11:42 47° NE 00:14:06 10° NE
STARLINK-1213 3.9 00:12:02 46° N 00:12:02 46° N 00:14:38 10° NE
STARLINK-1263 3.9 00:12:53 46° N 00:12:53 46° N 00:15:31 10° NE
STARLINK-1259 3.9 00:13:48 46° N 00:13:48 46° N 00:16:27 10° NE
STARLINK-1265 3.8 00:14:10 47° N 00:14:10 47° N 00:16:53 10° NE
STARLINK-1285 3.8 00:14:38 46° N 00:14:38 46° N 00:17:20 10° NE
Cosmos 2084 Rocket 3.4 00:09:58 10° NW 00:14:27 75° SW 00:14:58 66° S
SL-16 R/B 3.2 00:10:24 18° SE 00:14:54 51° ENE 00:20:51 10° N
Cosmos 1758 Rocket 3.8 00:15:28 49° WSW 00:15:59 52° WNW 00:20:20 10° N
STARLINK-1296 3.8 00:16:22 46° N 00:16:22 46° N 00:19:08 10° NE
STARLINK-1260 3.8 00:17:14 46° NNW 00:17:14 46° NNW 00:20:02 10° NE
Cosmos 2298 Rocket 4.2 00:12:01 10° NNW 00:17:20 72° ENE 00:19:50 32° SE
STARLINK-1318 3.8 00:18:06 45° NNW 00:18:06 45° NNW 00:20:56 10° NE
STARLINK-75 4.2 00:18:02 36° NW 00:18:23 37° NNW 00:21:26 10° NE
STARLINK-1275 3.8 00:18:59 45° NNW 00:18:59 45° NNW 00:21:50 10° NE
STARLINK-48 3.4 00:19:05 73° ESE 00:19:05 73° ESE 00:22:51 10° ENE
STARLINK-1278 4.2 00:19:19 43° SE 00:19:19 43° SE 00:23:09 10° ENE
STARLINK-1309 3.8 00:19:50 44° NNW 00:19:50 44° NNW 00:22:43 10° NE
IRAS Rocket 4.1 00:18:05 41° S 00:20:07 83° WSW 00:25:41 10° NNW
Cosmos 489 Rocket 4.4 00:18:08 42° S 00:20:26 82° ESE 00:26:44 10° NNE
STARLINK-1282 3.9 00:20:42 44° NNW 00:20:42 44° NNW 00:23:36 10° NE
STARLINK-1280 4.2 00:21:06 45° SE 00:21:06 45° SE 00:25:01 10° ENE
STARLINK-1283 4.1 00:20:03 41° W 00:21:11 57° NNW 00:25:15 10° NE
STARLINK-1313 4.0 00:21:38 39° NNW 00:21:44 39° NNW 00:24:42 10° NE
STARLINK-80 3.9 00:21:07 45° WNW 00:21:51 54° NNW 00:25:35 10° NE
STARLINK-1279 4.0 00:22:33 38° NNW 00:22:40 38° NNW 00:25:38 10° NE
STARLINK-1298 3.9 00:23:17 42° NNW 00:23:17 42° NNW 00:26:16 10° NE
STARLINK-1293 3.9 00:24:09 41° NNW 00:24:12 41° NNW 00:27:12 10° NE
SL-16 R/B 3.1 00:22:44 28° SSE 00:24:48 38° ESE 00:30:00 10° NE
Cosmos 2208 Rocket 4.4 00:23:37 39° WSW 00:25:18 55° WNW 00:30:35 10° NNE
STARLINK-1255 3.9 00:25:54 40° NW 00:26:01 40° NNW 00:29:00 10° NE
STARLINK-22 4.1 00:26:16 37° NW 00:26:37 39° NNW 00:29:40 10° NE
STARLINK-1297 3.9 00:26:32 45° WNW 00:27:09 51° NNW 00:30:41 10° NE
STARLINK-1311 4.2 00:28:27 31° NW 00:28:38 32° NNW 00:31:21 10° NE
STARLINK-1286 4.0 00:29:54 47° SE 00:29:54 47° SE 00:33:55 10° ENE
Cosmos 2285 Rocket 4.3 00:23:56 10° NNW 00:30:00 49° WSW 00:31:55 38° SSW
MOZ.5/SAFIR/RUBIN 5/SL-8 3.8 00:29:16 39° SSE 00:30:57 76° ENE 00:35:36 10° N
USA 215 3.3 00:28:07 22° SSE 00:32:26 58° SW 00:38:54 10° NW
CZ-2D R/B 2.5 00:27:49 10° NNE 00:32:56 54° E 00:35:02 33° SSE
STARLINK-1281 4.0 00:33:11 47° SE 00:33:15 47° SE 00:37:14 10° ENE
Cosmos-2242 3.4 00:30:05 10° NNW 00:34:07 43° W 00:34:23 42° WSW
Cosmos 1953 Rocket 3.7 00:33:32 51° SW 00:34:20 61° W 00:38:42 10° N
Meteor 2-10 Rocket 4.4 00:30:06 10° NNW 00:34:33 31° W 00:35:16 30° WSW
Cosmos 2221 3.6 00:32:52 10° N 00:37:01 41° ENE 00:39:28 21° SE
BREEZE-M R/B 4.4 00:32:49 10° WNW 00:37:50 34° N 00:40:46 10° ENE
STARLINK-1310 3.8 00:37:58 51° SSE 00:38:13 52° SE 00:42:16 10° ENE
STARLINK-1029 3.3 00:39:04 56° NW 00:39:07 56° NNW 00:42:15 10° NE
CZ-4C R/B 3.6 00:38:34 40° SSE 00:40:08 79° ENE 00:44:36 10° N
STARLINK-34 3.8 00:40:02 40° NW 00:40:18 41° NNW 00:43:14 10° NE
STARLINK-60 3.9 00:38:39 10° NW 00:41:46 48° NNE 00:44:51 10° ESE
GP-B 3.0 00:37:20 10° N 00:41:49 83° W 00:42:59 49° SSW
Cosmos 540 Rocket 4.3 00:41:07 28° WSW 00:43:02 38° WNW 00:47:49 10° N
STARLINK-1319 3.7 00:42:43 54° SSE 00:43:10 57° SE 00:47:14 10° ENE
STARLINK-1272 4.4 00:42:02 28° WNW 00:43:17 38° NNW 00:46:38 10° NE
Cosmos 1315 Rocket 3.7 00:40:03 10° N 00:43:50 44° ENE 00:45:45 25° SE
Cosmos 1842 Rocket 4.0 00:39:35 10° N 00:44:01 60° E 00:46:05 30° SSE
STARLINK-62 3.9 00:43:45 36° NW 00:44:10 38° NNW 00:47:04 10° NE
Cosmos 2360 Rocket 3.8 00:43:57 15° SE 00:47:10 25° ESE 00:51:40 10° NE
STARLINK-1277 3.6 00:47:31 54° S 00:48:08 63° SE 00:52:14 10° ENE
Helios 1B rocket 4.4 00:46:29 10° NNW 00:49:13 17° WNW 00:50:24 16° W
Cosmos 2058 4.0 00:50:48 24° SE 00:52:44 38° E 00:56:40 10° NNE
STARLINK-1276 3.6 00:52:19 53° SSW 00:53:07 69° SE 00:57:15 10° ENE
IKONOS-2 4.5 00:51:35 36° SSE 00:53:19 85° ENE 00:57:37 10° NNW
Cosmos 2074 Rocket 4.0 00:51:22 33° SSW 00:54:26 78° W 01:00:44 10° N
Cosmos 1980 Rocket 3.1 00:51:50 24° WSW 00:54:35 40° WNW 00:59:54 10° NNE
Shenzhou-11 Module 3.9 00:56:40 18° E 00:56:40 18° E 00:57:26 10° E
STARLINK-1305 3.5 00:57:04 49° SSW 00:58:04 75° SE 01:02:12 10° ENE
STARLINK-1306 3.5 00:57:24 47° SW 00:58:30 80° SE 01:02:44 10° ENE
Cosmos 1455 4.5 00:58:49 10° WNW 01:00:05 12° WNW 01:00:05 12° WNW
CZ-4B R/B 3.7 00:56:33 10° NNE 01:01:50 72° ESE 01:04:34 29° S
STARLINK-1262 3.5 01:01:53 45° SW 01:03:05 81° SE 01:07:14 10° ENE
STARLINK-1300 3.5 01:06:40 41° SW 01:08:02 88° SSE 01:12:12 10° NE
ADEOS II 2.8 01:05:57 10° NNE 01:11:01 47° E 01:14:39 18° SSE
Cosmos 2263 Rocket 2.2 01:06:50 10° NNW 01:12:22 63° WSW 01:15:58 22° S
NOSS 2-1 (C) 3.1 01:12:04 43° WSW 01:12:56 63° NW 01:16:29 10° NNE
STARLINK-1295 3.5 01:11:26 37° WSW 01:13:01 86° NNW 01:17:10 10° NE
UNK 3.9 01:11:40 34° SSW 01:13:25 55° W 01:17:55 10° NNW
IRS-1D 3.8 01:09:05 10° NNE 01:14:19 64° E 01:17:31 23° S
STARLINK-29 4.0 01:11:26 10° NW 01:14:33 46° NNE 01:17:37 10° ESE
STARLINK-64 4.0 01:14:12 27° W 01:15:49 47° NNW 01:19:18 10° NE
AQUA 3.8 01:11:12 10° NNE 01:16:01 86° W 01:18:23 30° SSW
SL-4 R/B 2.2 01:11:25 10° WNW 01:16:16 86° SSW 01:20:54 10° SE
NOSS 2-1 (D) 3.3 01:16:50 37° WSW 01:17:51 55° NW 01:21:23 10° NNE
STARLINK-1287 3.6 01:16:13 33° WSW 01:17:59 80° NW 01:22:09 10° NE
USA 229 DEB 3.8 01:10:59 10° NW 01:18:17 74° WSW 01:25:55 10° SSE
USA 229 3.8 01:11:05 10° NW 01:18:23 75° WSW 01:26:01 10° SSE
NOSS 3-1 (C) 4.1 01:11:36 10° NW 01:19:13 69° WSW 01:27:53 10° SSE
Cosmos 2184 Rocket 4.3 01:16:26 27° SW 01:19:39 52° WNW 01:25:40 10° N
NPP 3.7 01:14:34 10° N 01:19:57 68° WNW 01:22:54 27° SSW
ARIANE 5 R/B 3.8 01:16:11 10° NNE 01:20:43 33° E 01:25:02 11° SSE
STARLINK-25 4.1 01:20:21 30° SSE 01:20:59 32° SE 01:24:06 10° ENE
CZ-4C R/B 4.5 01:19:13 10° WNW 01:23:04 19° NNW 01:27:22 10° NNE
Cosmos 1892 2.6 01:21:53 32° S 01:23:31 82° E 01:27:19 10° N
BREEZE-M DEB (TANK) 3.5 01:23:14 20° WNW 01:24:10 31° N 01:26:53 10° ENE
STARLINK-1299 4.0 01:24:05 24° WSW 01:26:30 62° NNW 01:30:44 10° NE
NOSS 3-1 (A) 4.1 01:19:44 10° NW 01:27:25 87° SW 01:36:11 10° SSE
STARLINK-1302 3.8 01:25:46 26° WSW 01:27:57 68° NNW 01:32:05 10° NE
BREEZE-M DEB (TANK) 3.5 01:27:05 10° NW 01:29:09 26° NNE 01:31:35 10° ENE
STARLINK-24 4.1 01:28:48 29° S 01:30:17 43° SE 01:34:07 10° ENE
Cosmos 1869 3.4 01:27:43 10° NNW 01:31:28 51° W 01:33:00 31° SSW
STARLINK-1273 3.9 01:30:32 24° WSW 01:32:56 63° NNW 01:37:03 10° NE
Cosmos 2322 Rocket 2.2 01:29:42 25° SW 01:33:04 75° WNW 01:38:43 10° NNE
In-Cosmos 22 Rocket 4.2 01:31:02 23° SSW 01:34:38 77° W 01:40:08 10° N
STARLINK-1288 4.0 01:35:19 21° WSW 01:37:54 59° NNW 01:42:01 10° NE
STARLINK-61 3.5 01:35:51 26° WSW 01:37:57 73° NW 01:41:53 10° NE
STARLINK-1014 4.4 01:38:25 24° S 01:40:19 38° SE 01:44:09 10° ENE
STARLINK-81 3.8 01:38:56 29° SSW 01:40:23 47° SE 01:43:54 10° ENE
Resurs 1-4 Rocket 2.9 01:36:53 10° N 01:41:44 37° WNW 01:44:54 19° WSW
STARLINK-54 3.5 01:40:39 29° SSW 01:42:10 54° SE 01:45:43 10° ENE
Cosmos 1076 Rocket 3.6 01:39:51 25° SSW 01:42:17 63° W 01:46:39 10° N
STARLINK-1308 4.1 01:40:08 19° WSW 01:42:57 54° NNW 01:47:02 10° NE
STARLINK-77 3.7 01:42:03 28° SSW 01:43:37 50° SE 01:47:09 10° ENE
Cosmos 2151 3.6 01:40:30 14° S 01:44:03 55° E 01:48:16 10° NNE
COBE Rocket 4.5 01:39:38 10° SSE 01:44:38 63° ENE 01:49:45 10° N
Lacrosse 5 rocket 3.8 01:43:24 10° SE 01:44:44 11° ESE 01:46:05 10° ESE
STARLINK-1025 4.3 01:43:11 23° SSW 01:45:17 42° SE 01:49:13 10° ENE
H-2A R/B 3.7 01:41:59 10° SE 01:46:02 36° ENE 01:50:11 10° N
Cosmos 1125 Rocket 4.2 01:41:31 10° NW 01:46:10 33° W 01:48:54 20° SSW
STARLINK-79 3.5 01:46:45 27° SSW 01:48:30 56° SE 01:52:05 10° ENE
Okean 3 Rocket 4.4 01:44:43 10° SSE 01:49:03 51° E 01:53:28 10° NNE
Cosmos 962 Rocket 4.5 01:44:45 17° SSW 01:49:34 76° W 01:55:48 10° N
STARLINK-52 3.0 01:46:42 10° NW 01:49:55 81° NE 01:53:07 10° ESE
STARLINK-78 3.5 01:48:20 26° SSW 01:50:08 59° SE 01:53:44 10° ENE
STARLINK-1017 4.2 01:47:56 22° SSW 01:50:13 46° SE 01:54:12 10° ENE
Cosmos 1408 2.5 01:49:31 22° SSW 01:51:45 75° W 01:55:26 10° N
STARLINK-57 3.3 01:49:58 26° SW 01:51:50 64° SE 01:55:25 10° ENE
STARLINK-1304 4.4 01:49:41 15° W 01:52:55 48° NNW 01:56:57 10° NE
STARLINK-49 3.4 01:51:26 25° SW 01:53:21 63° SE 01:56:56 10° ENE
STARLINK-27 3.4 01:53:02 24° SW 01:55:01 65° SE 01:58:38 10° ENE
STARLINK-1023 4.1 01:52:43 21° SSW 01:55:10 50° SE 01:59:11 10° ENE
GEOS 3 Rocket 3.7 01:50:19 10° SSE 01:55:23 57° WSW 02:00:35 10° NW
STARLINK-74 3.3 01:54:35 24° SW 01:56:38 67° SE 02:00:15 10° ENE
STARLINK-39 3.3 01:56:10 23° SW 01:58:16 70° SE 02:01:53 10° ENE
Cosmos 1825 2.1 01:55:27 16° S 01:58:20 84° E 02:02:07 10° N
SL-16 R/B 3.5 01:55:29 18° SW 01:58:45 27° W 02:03:54 10° NW
Cosmos 2237 4.2 01:54:30 18° SSW 01:58:54 84° WNW 02:04:41 10° NNE
STARLINK-31 3.3 01:57:45 22° SW 01:59:55 73° SE 02:03:33 10° ENE
STARLINK-1007 3.9 01:57:32 20° SSW 02:00:10 55° SE 02:04:14 10° ENE
SL-08 R/B 3.2 01:55:51 10° S 02:00:29 79° WSW 02:05:07 10° NNW
STARLINK-69 3.2 01:59:20 22° SW 02:01:35 82° SE 02:05:11 10° ENE
STARLINK-21 3.2 02:00:55 21° SW 02:03:13 79° SE 02:06:50 10° ENE
Cosmos 1538 Rocket 4.5 01:59:22 11° S 02:04:25 61° ESE 02:09:45 10° NNE
STARLINK-45 3.2 02:02:35 20° SW 02:04:59 88° SE 02:08:38 10° NE
STARLINK-1048 3.8 02:02:18 19° SW 02:05:07 61° SE 02:09:13 10° ENE
IRS-P3 4.2 02:00:04 10° N 02:05:21 66° WNW 02:09:52 14° SSW
Cosmos 1844 Rocket 2.8 02:01:20 10° NNW 02:06:58 79° ENE 02:12:32 10° SSE
STARLINK-76 3.2 02:05:36 19° SW 02:08:05 86° SE 02:11:44 10° NE
STARLINK-70 3.2 02:05:59 19° SW 02:08:34 89° NNW 02:12:15 10° NE
SL-16 R/B 3.2 02:04:36 14° WSW 02:08:55 35° NW 02:14:06 10° N
STARLINK-23 3.2 02:07:11 18° SW 02:09:43 89° SSE 02:13:22 10° NE
STARLINK-1049 3.7 02:07:06 18° SW 02:10:06 66° SE 02:14:13 10° ENE
STARLINK-32 3.2 02:08:37 18° SW 02:11:11 89° NW 02:14:47 10° NE
CZ-2D R/B 3.7 02:08:45 10° NNW 02:12:36 21° WNW 02:16:21 10° WSW
STARLINK-40 3.2 02:10:18 17° SW 02:12:58 86° NW 02:16:37 10° NE
COSMOS 2428 3.8 02:08:03 10° S 02:13:16 40° ESE 02:18:31 10° NE
CZ-4C R/B 3.9 02:10:29 10° SSE 02:14:02 55° ENE 02:17:36 10° N
Cosmos 2221 4.2 02:11:17 10° NW 02:14:14 18° W 02:16:17 13° WSW
STARLINK-44 3.2 02:11:49 17° WSW 02:14:33 84° NNW 02:18:12 10° NE
STARLINK-1051 3.7 02:11:51 16° SW 02:15:02 73° SE 02:19:11 10° ENE
Cosmos 773 Rocket 4.1 02:11:02 14° SSW 02:15:34 72° WNW 02:20:53 10° NNE
STARLINK-37 3.3 02:13:33 16° WSW 02:16:24 76° NNW 02:20:01 10° NE
STARLINK-60 4.2 02:15:10 10° W 02:17:37 21° SW 02:20:06 10° S
STARLINK-36 3.3 02:14:56 15° WSW 02:17:48 79° NW 02:21:27 10° NE
FALCON 9 DEB 3.1 02:15:47 10° NW 02:19:15 89° SW 02:22:43 10° SE
STARLINK-63 3.4 02:18:10 14° WSW 02:21:11 71° NNW 02:24:48 10° NE
STARLINK-35 3.3 02:19:32 14° WSW 02:22:32 72° NNW 02:26:07 10° NE
STARLINK-51 3.4 02:21:14 13° WSW 02:24:21 69° NNW 02:27:57 10° NE
Cosmos 2366 rocket 4.0 02:18:09 10° SSW 02:24:23 77° W 02:30:44 10° N
STARLINK-1028 3.6 02:21:25 14° SW 02:24:59 85° SE 02:29:09 10° NE
STARLINK-30 3.4 02:22:49 13° WSW 02:26:01 68° NNW 02:29:38 10° NE
STARLINK-72 3.4 02:24:13 12° WSW 02:27:24 65° NNW 02:30:58 10° NE
Shenzhou-11 Module 1.4 02:26:59 10° W 02:29:24 61° S 02:31:49 10° ESE
STARLINK-1021 3.6 02:26:14 12° SW 02:30:00 88° NW 02:34:10 10° NE
STARLINK-59 3.6 02:27:25 11° WSW 02:30:46 59° NNW 02:34:19 10° NE
Cosmos 2360 Rocket 2.6 02:25:44 12° SW 02:30:49 50° WNW 02:36:19 10° NNE
Cosmos 1933 3.5 02:27:43 10° N 02:31:47 79° E 02:35:47 10° S
STARLINK-1010 3.7 02:28:17 12° WSW 02:32:15 82° NW 02:36:31 10° NE
STARLINK-56 3.6 02:29:04 11° WSW 02:32:32 60° NNW 02:36:08 10° NE
STARLINK-1352 4.4 02:28:53 10° NW 02:32:50 54° NNE 02:36:45 10° ESE
CZ-2C R/B 4.3 02:29:16 10° NNE 02:33:51 30° E 02:38:22 10° SSE
STARLINK-73 3.7 02:30:38 10° WSW 02:34:09 58° NNW 02:37:45 10° NE
STARLINK-1019 3.7 02:30:59 11° WSW 02:34:57 82° NW 02:39:06 10° NE
Cosmos 1328 Rocket 3.5 02:30:54 10° N 02:35:20 85° W 02:39:40 10° S
STARLINK-38 3.7 02:32:14 10° WSW 02:35:48 56° NNW 02:39:23 10° NE
STARLINK-65 3.7 02:33:52 10° WSW 02:37:26 55° NNW 02:41:01 10° NE
STARLINK-1368 4.3 02:33:34 10° NW 02:37:32 58° NNE 02:41:31 10° ESE
STARLINK-68 3.9 02:34:35 10° WSW 02:38:09 52° NNW 02:41:44 10° NE
STARLINK-53 3.9 02:35:37 10° WSW 02:39:10 51° NNW 02:42:43 10° NE
STARLINK-1012 3.7 02:35:48 10° WSW 02:39:56 76° NNW 02:44:06 10° NE
BREEZE-M DEB (TANK) 4.1 02:35:43 10° SW 02:40:19 29° SSE 02:42:59 10° E
STARLINK-50 3.9 02:37:41 10° WSW 02:41:25 56° NNW 02:45:11 10° NE
STARLINK-1369 4.1 02:37:59 10° NW 02:42:00 63° NNE 02:45:59 10° ESE
Cosmos 2333 Rocket 2.3 02:38:33 10° SSW 02:44:12 84° ESE 02:49:54 10° NNE
Meteor 1-28 Rocket 4.0 02:41:45 10° SSW 02:45:08 31° W 02:48:31 10° NNW
STARLINK-1372 4.0 02:42:09 10° NW 02:46:08 67° NNE 02:50:04 10° ESE
STARLINK-71 4.1 02:42:16 10° WSW 02:46:12 53° NNW 02:50:10 10° NE
Landsat 5 3.6 02:41:49 10° S 02:46:19 69° WSW 02:50:45 10° NNW
Cosmos 2219 Rocket 2.3 02:42:43 10° SSW 02:48:18 85° ESE 02:53:55 10° NNE
Cosmos 2322 3.9 02:44:06 10° SW 02:49:45 64° WNW 02:55:28 10° NNE
STARLINK-1026 3.9 02:45:47 10° WSW 02:49:53 65° NNW 02:54:02 10° NE
ADEOS II 3.4 02:46:14 10° N 02:50:25 25° WNW 02:54:35 10° WSW
STARLINK-29 4.2 02:47:58 10° W 02:50:28 21° SW 02:52:59 10° S
Cosmos 1727 Rocket 4.0 02:44:23 10° NNW 02:50:32 69° W 02:56:39 10° S
STARLINK-1378 3.9 02:46:52 10° NW 02:50:53 72° NNE 02:54:54 10° ESE
Cosmos 2228 Rocket 4.3 02:48:12 10° N 02:52:36 48° ENE 02:57:00 10° SSE
IDEFIX/ARIANE 42P 2.7 02:49:06 10° N 02:54:20 64° WNW 02:59:30 10° SSW
Meteor 1-26 Rocket 4.4 02:48:25 10° N 02:54:20 88° W 03:00:19 10° S
ERS-2 3.1 02:51:32 10° SSW 02:54:43 28° W 02:57:56 10° NW
Cosmos 1782 3.6 02:50:53 10° N 02:54:50 57° E 02:58:46 10° SSE
STARLINK-1013 4.0 02:50:48 10° WSW 02:54:54 61° NNW 02:59:01 10° NE
STARLINK-1379 3.8 02:51:22 10° NW 02:55:24 78° NE 02:59:26 10° ESE
SL-4 R/B 3.7 02:52:15 10° W 02:55:25 18° SW 02:58:28 10° S
